User: anonymous   Login
Location: Vancouver
(49.2500°N, 123.1330°W)
Time: 08:21:37
(UTC-07:00)
Language:

BREEZE-M DEB (TANK) - Orbit

View from above orbital plane
View from above orbital plane
View from above satellite
View from above satellite

Ground track
Ground track

The orbit data is extracted from the following two-line orbital elements,

1 27821U 03024B   15144.47485519  .00005376  00000-0  69021-3 0  9999
2 27821 049.5685 227.3470 4981615 178.5324 330.6415 05.67091449237254
Epoch (UTC): 24 May 2015 11:23:47
Eccentricity: 0.4981615
inclination: 49.5685°
perigee height: 288 km
apogee height: 13522 km
right ascension of ascending node: 227.3470°
argument of perigee: 178.5324°
revolutions per day: 5.67091449
mean anomaly at epoch: 330.6415°
orbit number at epoch: 23725

The dashed part of the orbit path shows where the satellite is in the earth's shadow,  

DLR